Date,TemperatureHighF,TemperatureAvgF,TemperatureLowF,DewpointHighF,DewpointAvgF,DewpointLowF,HumidityHigh,HumidityAvg,HumidityLow,PressureMaxIn,PressureMinIn,WindSpeedMaxMPH,WindSpeedAvgMPH,GustSpeedMaxMPH,PrecipitationSumIn
2013-2-1,32.3,27.5,22.5,30.6,14.2,7.2,94,58,46,30.35,29.82,31,12,31,0.00
2013-2-2,32.4,26.7,20.4,29.0,15.9,7.9,91,64,47,30.36,29.99,18,6,18,0.00
2013-2-3,34.4,31.6,29.0,30.9,27.4,22.8,93,85,66,29.99,29.81,26,3,26,0.00
2013-2-4,38.0,31.8,26.3,33.1,21.4,14.4,85,65,56,30.09,29.88,26,7,26,0.00
2013-2-5,38.9,37.0,33.0,35.5,33.2,30.4,94,86,75,29.92,29.83,12,2,12,0.00
2013-2-6,43.0,37.5,31.2,35.9,32.3,28.1,96,82,64,30.34,29.90,20,5,20,0.00
2013-2-7,39.5,35.7,30.0,34.5,30.5,25.2,90,81,73,30.44,30.17,16,6,16,0.00
2013-2-8,40.7,38.3,35.6,39.6,36.1,27.6,98,92,69,30.17,29.65,32,12,32,0.30
2013-2-9,39.3,34.7,30.8,28.1,23.7,21.0,74,64,54,30.36,29.84,39,13,39,0.00
2013-2-10,40.2,34.4,29.1,34.6,24.0,16.1,90,66,46,30.48,30.26,21,7,21,0.00
2013-2-11,53.7,45.6,37.4,51.1,44.1,34.7,99,95,82,30.26,29.69,19,6,19,0.18
2013-2-12,51.4,46.4,40.4,47.2,35.9,32.0,87,67,48,29.98,29.76,18,4,18,0.00
2013-2-13,43.6,39.5,34.8,39.4,35.2,31.2,97,85,75,29.94,29.62,21,8,22,0.11
2013-2-14,43.6,39.3,35.6,37.0,35.1,33.0,97,85,70,30.01,29.72,16,5,16,0.01
2013-2-15,52.1,43.2,37.8,43.7,39.0,34.8,93,85,72,30.02,29.86,18,5,18,0.00
2013-2-16,38.1,36.4,34.7,36.5,33.0,25.6,96,88,69,29.93,29.76,28,13,28,0.04
2013-2-17,34.8,30.4,26.3,27.0,17.0,11.1,73,58,44,30.16,29.76,31,13,31,0.00
2013-2-18,38.0,30.8,23.9,32.8,18.0,9.0,86,59,43,30.36,30.16,28,8,28,0.00
2013-2-19,44.9,40.8,37.8,44.1,36.4,29.9,98,84,72,30.17,29.71,20,8,20,0.08
2013-2-20,40.2,34.8,27.2,31.8,21.3,13.2,72,58,50,30.12,29.81,29,10,29,0.00
2013-2-21,38.7,31.7,25.7,24.4,19.0,14.0,70,59,49,30.28,30.09,25,10,25,0.00
2013-2-22,34.8,32.8,30.3,33.5,26.6,22.1,95,78,68,30.37,30.19,20,5,20,0.01
2013-2-23,42.1,38.3,34.7,41.8,37.8,33.4,99,98,95,30.19,29.77,18,6,18,0.08
2013-2-24,49.9,42.0,35.1,45.1,36.1,24.9,100,81,53,30.06,29.76,30,9,30,0.01
2013-2-25,43.3,36.7,32.0,34.2,28.9,24.2,93,74,58,30.20,30.06,20,5,22,0.00
2013-2-26,49.2,40.1,34.3,48.7,37.7,31.6,99,91,82,30.21,29.55,33,12,33,0.34
2013-2-27,53.7,46.5,41.8,47.7,43.1,37.7,99,88,67,29.67,29.45,18,3,18,0.02
2013-2-28,46.4,42.9,38.7,39.8,36.1,32.2,91,77,63,29.70,29.59,17,4,17,0.10